| time (UTC) | temp F | wind direction | speed MPH | gust MPH | rain 1hr in | rain 24hr in | rain mn in | humidity % | barometer mb |
| 20260503015015 | 64 | 345 | 3.0 | 6.0 | 0.00 | 0.00 | 0.00 | 31 | 1011.3 |
| 20260503014514 | 64 | 345 | 4.0 | 11.0 | 0.00 | 0.00 | 0.00 | 31 | 1011.3 |
| 20260503014012 | 65 | 332 | 6.0 | 11.0 | 0.00 | 0.00 | 0.00 | 30 | 1011.4 |
| 20260503013511 | 65 | 336 | 4.0 | 11.0 | 0.00 | 0.00 | 0.00 | 30 | 1011.4 |
| 20260503013015 | 66 | 335 | 5.0 | 12.0 | 0.00 | 0.00 | 0.00 | 30 | 1011.3 |
| 20260503012508 | 66 | 359 | 7.0 | 12.0 | 0.00 | 0.00 | 0.00 | 30 | 1011.3 |
| 20260503012005 | 66 | 1 | 7.0 | 13.0 | 0.00 | 0.00 | 0.00 | 31 | 1011.4 |
| 20260503011504 | 66 | 1 | 9.0 | 14.0 | 0.00 | 0.00 | 0.00 | 30 | 1011.3 |
| 20260503011004 | 67 | 329 | 8.0 | 13.0 | 0.00 | 0.00 | 0.00 | 30 | 1011.3 |
| 20260503010502 | 67 | 359 | 7.0 | 12.0 | 0.00 | 0.00 | 0.00 | 28 | 1011.3 |
| 20260503010100 | 67 | 359 | 4.0 | 11.0 | 0.00 | 0.00 | 0.00 | 29 | 1011.3 |
| 20260503005559 | 67 | 330 | 8.0 | 12.0 | 0.00 | 0.00 | 0.00 | 28 | 1011.3 |
| 20260503005057 | 67 | 359 | 7.0 | 12.0 | 0.00 | 0.00 | 0.00 | 28 | 1011.3 |
| 20260503004558 | 68 | 9 | 7.0 | 13.0 | 0.00 | 0.00 | 0.00 | 27 | 1011.3 |
| 20260503004055 | 68 | 17 | 10.0 | 13.0 | 0.00 | 0.00 | 0.00 | 26 | 1011.2 |
| 20260503003553 | 69 | 23 | 7.0 | 13.0 | 0.00 | 0.00 | 0.00 | 26 | 1011.3 |
| 20260503003055 | 70 | 345 | 8.0 | 13.0 | 0.00 | 0.00 | 0.00 | 26 | 1011.2 |
| 20260503002550 | 70 | 359 | 7.0 | 15.0 | 0.00 | 0.00 | 0.00 | 25 | 1011.2 |
| 20260503002049 | 71 | 27 | 6.0 | 10.0 | 0.00 | 0.00 | 0.00 | 25 | 1011.2 |
| 20260503001550 | 70 | 319 | 0.0 | 5.0 | 0.00 | 0.00 | 0.00 | 23 | 1011.2 |
| 20260503001046 | 70 | 215 | 3.0 | 6.0 | 0.00 | 0.00 | 0.00 | 23 | 1011.2 |
| 20260503000543 | 70 | 68 | 2.0 | 10.0 | 0.00 | 0.00 | 0.00 | 23 | 1011.3 |
| 20260503000044 | 71 | 320 | 4.0 | 10.0 | 0.00 | 0.00 | 0.00 | 23 | 1011.3 |
| 20260502235544 | 71 | 15 | 3.0 | 12.0 | 0.00 | 0.00 | 0.00 | 23 | 1011.3 |
| 20260502235039 | 71 | 50 | 7.0 | 14.0 | 0.00 | 0.00 | 0.00 | 24 | 1011.3 |
| 20260502234549 | 71 | 336 | 7.0 | 14.0 | 0.00 | 0.00 | 0.00 | 22 | 1011.3 |
| 20260502234037 | 71 | 16 | 6.0 | 13.0 | 0.00 | 0.00 | 0.00 | 24 | 1011.3 |
| 20260502233535 | 71 | 36 | 8.0 | 16.0 | 0.00 | 0.00 | 0.00 | 23 | 1011.3 |
| 20260502233040 | 71 | 350 | 11.0 | 16.0 | 0.00 | 0.00 | 0.00 | 24 | 1011.4 |
| 20260502232532 | 71 | 265 | 2.0 | 14.0 | 0.00 | 0.00 | 0.00 | 24 | 1011.4 |
| 20260502232031 | 71 | 36 | 3.0 | 14.0 | 0.00 | 0.00 | 0.00 | 23 | 1011.5 |
| 20260502231529 | 71 | 4 | 5.0 | 11.0 | 0.00 | 0.00 | 0.00 | 24 | 1011.5 |
| 20260502231028 | 71 | 332 | 3.0 | 14.0 | 0.00 | 0.00 | 0.00 | 23 | 1011.6 |
| 20260502230527 | 72 | 345 | 7.0 | 14.0 | 0.00 | 0.00 | 0.00 | 23 | 1011.7 |
| 20260502230032 | 71 | 22 | 5.0 | 12.0 | 0.00 | 0.00 | 0.00 | 24 | 1011.7 |
| 20260502225523 | 70 | 50 | 6.0 | 12.0 | 0.00 | 0.00 | 0.00 | 23 | 1011.9 |
| 20260502225022 | 71 | 315 | 6.0 | 11.0 | 0.00 | 0.00 | 0.00 | 23 | 1012.0 |
| 20260502224520 | 71 | 15 | 4.0 | 11.0 | 0.00 | 0.00 | 0.00 | 23 | 1012.1 |
| 20260502224019 | 71 | 345 | 2.0 | 9.0 | 0.00 | 0.00 | 0.00 | 22 | 1012.2 |
| 20260502223518 | 71 | 176 | 3.0 | 11.0 | 0.00 | 0.00 | 0.00 | 21 | 1012.2 |
| 20260502223024 | 71 | 321 | 5.0 | 11.0 | 0.00 | 0.00 | 0.00 | 21 | 1012.3 |
| 20260502222514 | 71 | 77 | 4.0 | 10.0 | 0.00 | 0.00 | 0.00 | 21 | 1012.4 |
| 20260502222013 | 71 | 192 | 2.0 | 11.0 | 0.00 | 0.00 | 0.00 | 21 | 1012.6 |
| 20260502221515 | 71 | 253 | 6.0 | 11.0 | 0.00 | 0.00 | 0.00 | 21 | 1012.7 |
| 20260502221010 | 71 | 207 | 1.0 | 9.0 | 0.00 | 0.00 | 0.00 | 21 | 1012.8 |
| 20260502220509 | 71 | 153 | 4.0 | 20.0 | 0.00 | 0.00 | 0.00 | 22 | 1012.8 |
| 20260502220008 | 70 | 168 | 10.0 | 20.0 | 0.00 | 0.00 | 0.00 | 20 | 1013.0 |
| 20260502215510 | 71 | 174 | 4.0 | 9.0 | 0.00 | 0.00 | 0.00 | 21 | 1013.1 |
| 20260502215005 | 71 | 258 | 2.0 | 9.0 | 0.00 | 0.00 | 0.00 | 23 | 1013.2 |
| 20260502214504 | 71 | 188 | 5.0 | 12.0 | 0.00 | 0.00 | 0.00 | 22 | 1013.3 |
| 20260502214002 | 71 | 143 | 4.0 | 12.0 | 0.00 | 0.00 | 0.00 | 21 | 1013.4 |
| 20260502213601 | 71 | 260 | 6.0 | 11.0 | 0.00 | 0.00 | 0.00 | 23 | 1013.5 |
| 20260502213059 | 71 | 219 | 6.0 | 14.0 | 0.00 | 0.00 | 0.00 | 20 | 1013.6 |
| 20260502212557 | 72 | 174 | 8.0 | 14.0 | 0.00 | 0.00 | 0.00 | 19 | 1013.7 |
| 20260502212056 | 71 | 128 | 4.0 | 11.0 | 0.00 | 0.00 | 0.00 | 19 | 1013.6 |
| 20260502211555 | 71 | 126 | 6.0 | 15.0 | 0.00 | 0.00 | 0.00 | 20 | 1013.8 |
| 20260502211052 | 72 | 180 | 12.0 | 14.0 | 0.00 | 0.00 | 0.00 | 22 | 1013.6 |
| 20260502210551 | 71 | 90 | 2.0 | 11.0 | 0.00 | 0.00 | 0.00 | 22 | 1013.9 |
| 20260502210058 | 71 | 153 | 4.0 | 12.0 | 0.00 | 0.00 | 0.00 | 21 | 1014.0 |
| 20260502205548 | 71 | 153 | 4.0 | 14.0 | 0.00 | 0.00 | 0.00 | 22 | 1014.1 |
| 20260502205049 | 71 | 185 | 4.0 | 13.0 | 0.00 | 0.00 | 0.00 | 21 | 1014.2 |
| 20260502204552 | 71 | 186 | 7.0 | 10.0 | 0.00 | 0.00 | 0.00 | 22 | 1014.2 |
| 20260502204045 | 70 | 122 | 3.0 | 9.0 | 0.00 | 0.00 | 0.00 | 22 | 1014.2 |
| 20260502203543 | 70 | 223 | 4.0 | 20.0 | 0.00 | 0.00 | 0.00 | 23 | 1014.5 |
| 20260502203047 | 70 | 168 | 13.0 | 20.0 | 0.00 | 0.00 | 0.00 | 21 | 1014.5 |
| 20260502202540 | 70 | 179 | 9.0 | 12.0 | 0.00 | 0.00 | 0.00 | 23 | 1014.5 |
| 20260502202038 | 70 | 138 | 7.0 | 12.0 | 0.00 | 0.00 | 0.00 | 22 | 1014.6 |
| 20260502201536 | 69 | 62 | 4.0 | 11.0 | 0.00 | 0.00 | 0.00 | 22 | 1014.6 |
| 20260502201035 | 69 | 171 | 3.0 | 11.0 | 0.00 | 0.00 | 0.00 | 22 | 1014.7 |
| 20260502200535 | 69 | 145 | 4.0 | 11.0 | 0.00 | 0.00 | 0.00 | 22 | 1014.9 |
| 20260502200032 | 69 | 170 | 1.0 | 15.0 | 0.00 | 0.00 | 0.00 | 23 | 1014.9 |
| 20260502195530 | 69 | 170 | 4.0 | 17.0 | 0.00 | 0.00 | 0.00 | 22 | 1015.0 |
| 20260502195029 | 69 | 134 | 13.0 | 17.0 | 0.00 | 0.00 | 0.00 | 23 | 1015.0 |
| 20260502194532 | 69 | 221 | 3.0 | 12.0 | 0.00 | 0.00 | 0.00 | 23 | 1015.0 |
| 20260502194026 | 68 | 227 | 4.0 | 9.0 | 0.00 | 0.00 | 0.00 | 23 | 1015.1 |
| 20260502193525 | 69 | 219 | 3.0 | 17.0 | 0.00 | 0.00 | 0.00 | 23 | 1015.2 |
| 20260502193024 | 69 | 120 | 12.0 | 22.0 | 0.00 | 0.00 | 0.00 | 23 | 1015.2 |
| 20260502192522 | 69 | 121 | 12.0 | 18.0 | 0.00 | 0.00 | 0.00 | 24 | 1015.3 |
| 20260502192020 | 69 | 155 | 5.0 | 15.0 | 0.00 | 0.00 | 0.00 | 23 | 1015.4 |
| 20260502191518 | 69 | 144 | 8.0 | 13.0 | 0.00 | 0.00 | 0.00 | 23 | 1015.6 |
| 20260502191021 | 69 | 134 | 9.0 | 17.0 | 0.00 | 0.00 | 0.00 | 24 | 1015.6 |
| 20260502190516 | 69 | 120 | 9.0 | 17.0 | 0.00 | 0.00 | 0.00 | 24 | 1015.6 |
| 20260502190015 | 69 | 164 | 7.0 | 16.0 | 0.00 | 0.00 | 0.00 | 23 | 1015.8 |
| 20260502185516 | 69 | 158 | 11.0 | 16.0 | 0.00 | 0.00 | 0.00 | 23 | 1016.0 |
| 20260502185011 | 69 | 116 | 7.0 | 18.0 | 0.00 | 0.00 | 0.00 | 24 | 1016.0 |
| 20260502184510 | 69 | 139 | 10.0 | 19.0 | 0.00 | 0.00 | 0.00 | 24 | 1016.1 |
| 20260502184014 | 69 | 138 | 12.0 | 19.0 | 0.00 | 0.00 | 0.00 | 23 | 1016.2 |
| 20260502183507 | 68 | 120 | 8.0 | 11.0 | 0.00 | 0.00 | 0.00 | 24 | 1016.3 |
| 20260502183006 | 68 | 157 | 7.0 | 14.0 | 0.00 | 0.00 | 0.00 | 24 | 1016.4 |
| 20260502182503 | 68 | 132 | 11.0 | 15.0 | 0.00 | 0.00 | 0.00 | 23 | 1016.6 |
| 20260502182002 | 68 | 138 | 9.0 | 15.0 | 0.00 | 0.00 | 0.00 | 24 | 1016.6 |
| 20260502181504 | 67 | 127 | 10.0 | 17.0 | 0.00 | 0.00 | 0.00 | 24 | 1016.6 |
| 20260502181100 | 67 | 161 | 12.0 | 18.0 | 0.00 | 0.00 | 0.00 | 25 | 1016.7 |
| 20260502180558 | 67 | 160 | 10.0 | 18.0 | 0.00 | 0.00 | 0.00 | 25 | 1016.7 |
| 20260502164033 | 62 | 119 | 7.0 | 12.0 | 0.00 | 0.00 | 0.00 | 32 | 1017.6 |
| 20260502163532 | 62 | 134 | 7.0 | 12.0 | 0.00 | 0.00 | 0.00 | 34 | 1017.7 |
| 20260502163044 | 62 | 135 | 6.0 | 12.0 | 0.00 | 0.00 | 0.00 | 34 | 1017.7 |
| 20260502162530 | 61 | 132 | 8.0 | 12.0 | 0.00 | 0.00 | 0.00 | 35 | 1017.7 |
| 20260502162027 | 60 | 153 | 9.0 | 12.0 | 0.00 | 0.00 | 0.00 | 37 | 1017.8 |
| 20260502161526 | 60 | 136 | 7.0 | 11.0 | 0.00 | 0.00 | 0.00 | 38 | 1017.8 |
| 20260502161025 | 59 | 130 | 6.0 | 10.0 | 0.00 | 0.00 | 0.00 | 39 | 1018.0 |
| 20260502160525 | 57 | 150 | 8.0 | 10.0 | 0.00 | 0.00 | 0.00 | 40 | 1018.0 |
| 20260502152010 | 48 | 162 | 2.0 | 6.0 | 0.00 | 0.00 | 0.00 | 51 | 1018.6 |
| 20260502151524 | 47 | 146 | 1.0 | 5.0 | 0.00 | 0.00 | 0.00 | 51 | 1018.7 |
| 20260502151007 | 46 | 181 | 2.0 | 4.0 | 0.00 | 0.00 | 0.00 | 51 | 1018.8 |
| 20260502150505 | 45 | 191 | 2.0 | 5.0 | 0.00 | 0.00 | 0.00 | 49 | 1018.9 |
| 20260502130539 | 24 | 190 | 1.0 | 2.0 | 0.00 | 0.00 | 0.00 | 1 | 1018.8 |
| 20260502123529 | 27 | 190 | 0.0 | 0.0 | 0.00 | 0.00 | 0.00 | 1 | 1018.7 |
| 20260502123036 | 27 | 190 | 0.0 | 0.0 | 0.00 | 0.00 | 0.00 | 1 | 1018.6 |
| 20260502122530 | 27 | 190 | 0.0 | 0.0 | 0.00 | 0.00 | 0.00 | 1 | 1018.6 |
| 20260502122028 | 26 | 190 | 0.0 | 2.0 | 0.00 | 0.00 | 0.00 | 1 | 1018.6 |
| 20260502121524 | 25 | 190 | 0.0 | 2.0 | 0.00 | 0.00 | 0.00 | 1 | 1018.6 |
| 20260502121022 | 25 | 190 | 0.0 | 2.0 | 0.00 | 0.00 | 0.00 | 1 | 1018.5 |
| 20260502120521 | 26 | 190 | 0.0 | 2.0 | 0.00 | 0.00 | 0.00 | 1 | 1018.5 |
| 20260502115518 | 27 | 190 | 0.0 | 0.0 | 0.00 | 0.00 | 0.00 | 1 | 1018.4 |
| 20260502115016 | 27 | 190 | 0.0 | 4.0 | 0.00 | 0.00 | 0.00 | 1 | 1018.4 |
| 20260502114515 | 27 | 190 | 1.0 | 4.0 | 0.00 | 0.00 | 0.00 | 1 | 1018.5 |
| 20260502114014 | 27 | 190 | 2.0 | 4.0 | 0.00 | 0.00 | 0.00 | 1 | 1018.4 |
| 20260502113514 | 27 | 191 | 0.0 | 3.0 | 0.00 | 0.00 | 0.00 | 1 | 1018.5 |
| 20260502113011 | 27 | 190 | 1.0 | 2.0 | 0.00 | 0.00 | 0.00 | 1 | 1018.5 |
| 20260502112509 | 26 | 190 | 0.0 | 2.0 | 0.00 | 0.00 | 0.00 | 1 | 1018.5 |
| 20260502112007 | 25 | 190 | 1.0 | 2.0 | 0.00 | 0.00 | 0.00 | 1 | 1018.4 |
| 20260502111510 | 25 | 190 | 1.0 | 2.0 | 0.00 | 0.00 | 0.00 | 1 | 1018.4 |
| 20260502111005 | 25 | 190 | 0.0 | 1.0 | 0.00 | 0.00 | 0.00 | 6 | 1018.4 |
| 20260502110504 | 25 | 190 | 0.0 | 0.0 | 0.00 | 0.00 | 0.00 | 12 | 1018.4 |
| 20260502110002 | 26 | 190 | 0.0 | 0.0 | 0.00 | 0.00 | 0.00 | 16 | 1018.5 |
| 20260502105501 | 27 | 190 | 0.0 | 2.0 | 0.00 | 0.00 | 0.00 | 18 | 1018.4 |
| 20260502105059 | 28 | 190 | 1.0 | 2.0 | 0.00 | 0.00 | 0.00 | 18 | 1018.4 |
| 20260502104558 | 30 | 190 | 1.0 | 2.0 | 0.00 | 0.00 | 0.00 | 5 | 1018.4 |
| 20260502104056 | 31 | 190 | 0.0 | 0.0 | 0.00 | 0.00 | 0.00 | 1 | 1018.4 |
| 20260502103555 | 31 | 190 | 0.0 | 2.0 | 0.00 | 0.00 | 0.00 | 1 | 1018.4 |
| 20260502103104 | 30 | 190 | 0.0 | 3.0 | 0.00 | 0.00 | 0.00 | 1 | 1018.5 |
| 20260502102552 | 30 | 190 | 1.0 | 3.0 | 0.00 | 0.00 | 0.00 | 1 | 1018.4 |
| 20260502102051 | 30 | 190 | 1.0 | 3.0 | 0.00 | 0.00 | 0.00 | 1 | 1018.5 |
| 20260502101559 | 30 | 190 | 0.0 | 2.0 | 0.00 | 0.00 | 0.00 | 1 | 1018.3 |
| 20260502101047 | 30 | 190 | 0.0 | 2.0 | 0.00 | 0.00 | 0.00 | 1 | 1018.3 |
| 20260502100547 | 30 | 190 | 1.0 | 2.0 | 0.00 | 0.00 | 0.00 | 8 | 1018.3 |
| 20260502100108 | 29 | 190 | 0.0 | 2.0 | 0.00 | 0.00 | 0.00 | 16 | 1018.4 |
| 20260502091534 | 31 | 190 | 0.0 | 0.0 | 0.00 | 0.00 | 0.00 | 40 | 1018.1 |
| 20260502091034 | 32 | 190 | 0.0 | 0.0 | 0.00 | 0.00 | 0.00 | 41 | 1018.2 |
| 20260502090532 | 32 | 190 | 0.0 | 0.0 | 0.00 | 0.00 | 0.00 | 39 | 1018.1 |
| 20260502071518 | 35 | 218 | 1.0 | 4.0 | 0.00 | 0.00 | 0.00 | 51 | 1017.7 |
| 20260502071016 | 36 | 181 | 1.0 | 4.0 | 0.00 | 0.00 | 0.00 | 53 | 1017.7 |
| 20260502070516 | 36 | 181 | 2.0 | 4.0 | 0.00 | 0.00 | 0.00 | 52 | 1017.6 |
| 20260502070015 | 37 | 181 | 2.0 | 4.0 | 0.00 | 0.00 | 0.00 | 52 | 1017.6 |
| 20260502065514 | 37 | 181 | 2.0 | 4.0 | 0.00 | 0.00 | 0.00 | 54 | 1017.5 |
| 20260502065013 | 36 | 196 | 2.0 | 4.0 | 0.00 | 0.00 | 0.00 | 54 | 1017.5 |
| 20260502064512 | 36 | 152 | 2.0 | 5.0 | 0.00 | 0.00 | 0.00 | 55 | 1017.4 |
| 20260502064017 | 36 | 159 | 3.0 | 6.0 | 0.00 | 0.00 | 0.00 | 55 | 1017.3 |
| 20260502063511 | 36 | 159 | 3.0 | 6.0 | 0.00 | 0.00 | 0.00 | 56 | 1017.3 |
| 20260502063009 | 37 | 165 | 3.0 | 5.0 | 0.00 | 0.00 | 0.00 | 56 | 1017.3 |
| 20260502062512 | 38 | 165 | 2.0 | 6.0 | 0.00 | 0.00 | 0.00 | 56 | 1017.2 |
| 20260502062006 | 38 | 175 | 3.0 | 6.0 | 0.00 | 0.00 | 0.00 | 56 | 1017.2 |
| 20260502061504 | 39 | 141 | 2.0 | 5.0 | 0.00 | 0.00 | 0.00 | 55 | 1017.2 |
| 20260502061003 | 40 | 155 | 3.0 | 6.0 | 0.00 | 0.00 | 0.00 | 53 | 1017.0 |
| 20260502060502 | 44 | 163 | 3.0 | 6.0 | 0.00 | 0.00 | 0.00 | 50 | 1017.0 |
| 20260502060101 | 45 | 350 | 2.0 | 4.0 | 0.00 | 0.00 | 0.00 | 51 | 1016.9 |
| 20260502055559 | 45 | 350 | 2.0 | 4.0 | 0.00 | 0.00 | 0.00 | 51 | 1016.9 |
| 20260502055058 | 45 | 350 | 1.0 | 3.0 | 0.00 | 0.00 | 0.00 | 51 | 1016.8 |
| 20260502054557 | 44 | 350 | 1.0 | 4.0 | 0.00 | 0.00 | 0.00 | 52 | 1016.8 |
| 20260502054059 | 44 | 299 | 1.0 | 5.0 | 0.00 | 0.00 | 0.00 | 52 | 1016.8 |
| 20260502053553 | 45 | 38 | 2.0 | 5.0 | 0.00 | 0.00 | 0.00 | 51 | 1016.7 |
| 20260502053102 | 46 | 51 | 1.0 | 4.0 | 0.00 | 0.00 | 0.00 | 50 | 1016.8 |
| 20260502052551 | 47 | 70 | 1.0 | 5.0 | 0.00 | 0.00 | 0.00 | 48 | 1016.8 |
| 20260502052049 | 47 | 33 | 0.0 | 6.0 | 0.00 | 0.00 | 0.00 | 47 | 1016.7 |
| 20260502051548 | 47 | 20 | 2.0 | 4.0 | 0.00 | 0.00 | 0.00 | 48 | 1016.6 |
| 20260502051047 | 47 | 14 | 2.0 | 4.0 | 0.00 | 0.00 | 0.00 | 48 | 1016.7 |
| 20260502050545 | 47 | 22 | 2.0 | 4.0 | 0.00 | 0.00 | 0.00 | 48 | 1016.6 |
| 20260502050043 | 47 | 3 | 2.0 | 5.0 | 0.00 | 0.00 | 0.00 | 48 | 1016.7 |
| 20260502045544 | 47 | 6 | 2.0 | 5.0 | 0.00 | 0.00 | 0.00 | 48 | 1016.7 |
| 20260502045043 | 47 | 359 | 2.0 | 5.0 | 0.00 | 0.00 | 0.00 | 48 | 1016.7 |
| 20260502044540 | 47 | 9 | 1.0 | 4.0 | 0.00 | 0.00 | 0.00 | 48 | 1016.7 |
| 20260502044038 | 47 | 9 | 2.0 | 4.0 | 0.00 | 0.00 | 0.00 | 48 | 1016.8 |
| 20260502043536 | 47 | 315 | 0.0 | 4.0 | 0.00 | 0.00 | 0.00 | 50 | 1016.8 |
| 20260502043036 | 47 | 41 | 1.0 | 4.0 | 0.00 | 0.00 | 0.00 | 51 | 1016.6 |
| 20260502042533 | 47 | 312 | 2.0 | 4.0 | 0.00 | 0.00 | 0.00 | 50 | 1016.6 |
| 20260502042033 | 47 | 326 | 1.0 | 5.0 | 0.00 | 0.00 | 0.00 | 50 | 1016.7 |
| 20260502041532 | 47 | 317 | 2.0 | 6.0 | 0.00 | 0.00 | 0.00 | 50 | 1016.6 |
| 20260502041029 | 47 | 328 | 3.0 | 6.0 | 0.00 | 0.00 | 0.00 | 50 | 1016.5 |
| 20260502040527 | 47 | 282 | 3.0 | 5.0 | 0.00 | 0.00 | 0.00 | 52 | 1016.5 |
| 20260502040026 | 47 | 288 | 2.0 | 4.0 | 0.00 | 0.00 | 0.00 | 51 | 1016.4 |
| 20260502035524 | 47 | 293 | 2.0 | 4.0 | 0.00 | 0.00 | 0.00 | 50 | 1016.4 |
| 20260502035123 | 47 | 295 | 0.0 | 4.0 | 0.00 | 0.00 | 0.00 | 49 | 1016.3 |
| 20260502034522 | 48 | 304 | 2.0 | 6.0 | 0.00 | 0.00 | 0.00 | 49 | 1016.2 |
| 20260502034021 | 48 | 300 | 3.0 | 6.0 | 0.00 | 0.00 | 0.00 | 48 | 1016.3 |
| 20260502033519 | 48 | 305 | 2.0 | 7.0 | 0.00 | 0.00 | 0.00 | 48 | 1016.2 |
| 20260502033024 | 49 | 307 | 3.0 | 8.0 | 0.00 | 0.00 | 0.00 | 48 | 1016.1 |
| 20260502032517 | 49 | 312 | 5.0 | 8.0 | 0.00 | 0.00 | 0.00 | 47 | 1016.0 |
| 20260502032019 | 49 | 328 | 3.0 | 6.0 | 0.00 | 0.00 | 0.00 | 48 | 1016.0 |
| 20260502031517 | 49 | 315 | 4.0 | 6.0 | 0.00 | 0.00 | 0.00 | 47 | 1015.9 |
| 20260502031016 | 49 | 317 | 3.0 | 6.0 | 0.00 | 0.00 | 0.00 | 47 | 1015.7 |
| 20260502030515 | 49 | 305 | 3.0 | 6.0 | 0.00 | 0.00 | 0.00 | 47 | 1015.7 |
| 20260502030013 | 49 | 330 | 1.0 | 6.0 | 0.00 | 0.00 | 0.00 | 47 | 1015.7 |
| 20260502025512 | 49 | 317 | 3.0 | 8.0 | 0.00 | 0.00 | 0.00 | 46 | 1015.6 |
| 20260502025010 | 50 | 313 | 3.0 | 8.0 | 0.00 | 0.00 | 0.00 | 45 | 1015.5 |
| 20260502024509 | 50 | 338 | 3.0 | 6.0 | 0.00 | 0.00 | 0.00 | 44 | 1015.5 |
| 20260502024011 | 51 | 315 | 2.0 | 5.0 | 0.00 | 0.00 | 0.00 | 43 | 1015.5 |
| 20260502023506 | 52 | 345 | 1.0 | 5.0 | 0.00 | 0.00 | 0.00 | 43 | 1015.5 |
| 20260502023005 | 53 | 315 | 2.0 | 5.0 | 0.00 | 0.00 | 0.00 | 41 | 1015.5 |
| 20260502022503 | 53 | 311 | 2.0 | 5.0 | 0.00 | 0.00 | 0.00 | 40 | 1015.5 |
| 20260502022003 | 54 | 345 | 1.0 | 5.0 | 0.00 | 0.00 | 0.00 | 41 | 1015.4 |
| 20260502021608 | 55 | 345 | 1.0 | 5.0 | 0.00 | 0.00 | 0.00 | 39 | 1015.3 |
| 20260502021058 | 55 | 6 | 2.0 | 5.0 | 0.00 | 0.00 | 0.00 | 37 | 1015.3 |
| 20260502020557 | 56 | 1 | 3.0 | 6.0 | 0.00 | 0.00 | 0.00 | 36 | 1015.2 |
| 20260502020056 | 57 | 3 | 3.0 | 6.0 | 0.00 | 0.00 | 0.00 | 36 | 1015.2 |
| 20260502015554 | 58 | 15 | 3.0 | 10.0 | 0.00 | 0.00 | 0.00 | 35 | 1015.2 |